Cloud_Cover
5 24 23 25 1 100 11 100 100 93 15 5 11 16 46 12 30 96 99 100 63 4 1 3 9 88 41 89 58 100 42 85 86 75 100 100 100 100 100 100 100 100 100 100 100 62 100
6 4 61 4 91 4 47 28 4 40 36 10 5 5 10 11 18 96 100 100 88 2 54 100 100 98 100 39 45 86 99 100 96 81 2 100 100 100 100 100 100 100 100 100 100 98 100
5 5 2 30 10 85 1 92 99 50 5 5 45 22 16 27 6 83 100 9 13 34 96 100 100 100 100 99 59 64 100 100 100 85 13 15 99 100 100 100 100 100 100 100 93 100 100
5 5 2 87 5 0 8 90 98 14 10 63 100 36 6 100 8 83 97 100 9 23 81 21 94 100 100 97 5 5 100 100 100 100 54 18 21 97 100 98 100 100 100 95 100 100 100
5 5 6 14 48 3 3 61 100 100 24 19 62 90 75 4 5 30 76 4 8 33 5 4 99 100 54 13 2 1 84 100 100 100 97 100 65 12 100 100 100 100 99 43 100 100 100
5 5 12 87 37 74 3 6 100 52 93 3 15 20 12 4 5 1 2 5 2 5 5 26 67 97 11 66 41 14 0 100 100 100 100 99 49 5 65 100 100 100 98 99 100 100 100
5 5 5 18 100 100 2 4 4 100 97 45 8 4 4 0 0 0 2 4 53 73 97 33 78 34 94 5 5 13 80 100 100 100 100 92 43 27 0 93 100 100 100 100 100 100 100
5 5 5 78 100 100 50 5 2 95 100 100 67 32 0 0 0 4 5 86 81 45 14 5 4 5 60 3 12 22 100 100 95 100 100 97 59 66 5 4 100 100 100 100 100 100 100
2 3 5 84 100 69 0 2 0 1 83 100 99 90 6 0 4 78 70 64 10 40 100 54 6 8 11 10 100 100 100 100 100 100 66 80 52 93 16 14 98 70 100 100 97 100 100
3 5 7 56 100 100 60 1 3 2 1 49 100 99 10 0 36 7 58 87 100 100 100 100 99 100 92 97 100 100 100 100 100 100 100 91 71 13 86 31 91 98 81 100 100 100 100
1 5 5 0 100 100 100 81 6 0 0 0 100 100 4 5 6 31 3 58 39 96 100 100 100 100 100 100 97 100 100 100 100 77 88 100 81 95 100 99 99 94 25 98 100 100 100
5 0 4 3 94 100 100 100 98 2 0 0 75 100 6 3 92 69 82 43 99 100 100 100 98 100 100 100 100 99 85 98 100 96 57 96 100 100 100 100 84 62 76 12 100 100 100
8 2 2 0 22 100 98 100 93 3 0 0 29 98 16 0 78 15 100 99 93 72 100 100 100 100 100 100 100 100 100 100 78 71 100 100 94 100 100 100 100 100 83 89 77 100 100
9 0 0 0 0 75 40 64 31 35 1 0 0 2 0 0 18 100 74 100 20 99 100 98 100 100 100 100 100 100 100 89 11 97 100 100 100 100 100 100 100 99 99 100 52 99 100
7 5 0 0 0 63 12 5 2 5 4 0 0 0 0 0 2 89 98 88 99 82 86 100 89 100 100 100 100 100 100 98 100 100 100 100 100 100 100 100 100 66 62 70 97 79 100
5 6 0 0 0 6 0 3 6 74 19 0 37 0 0 0 4 52 23 100 93 18 81 100 97 100 100 100 100 100 100 99 100 100 100 100 100 100 100 99 97 97 99 98 89 88 97
3 2 50 64 0 0 0 1 28 75 83 0 1 4 0 0 0 20 54 46 99 98 91 47 100 99 100 100 100 100 100 100 100 100 100 100 100 100 100 100 100 94 100 100 71 45 5
8 0 98 98 10 0 1 0 5 7 4 0 5 98 0 0 31 80 30 5 2 9 10 9 49 99 99 24 84 49 100 95 57 99 100 100 100 100 100 100 94 100 100 98 29 23 44
0 4 23 100 100 0 0 0 0 0 16 88 98 5 0 5 65 61 4 6 2 4 5 5 31 9 6 92 32 74 11 37 8 100 91 100 100 100 55 99 100 100 100 100 100 100 100
0 13 96 100 100 0 4 0 0 8 34 99 41 76 16 92 11 86 22 6 25 0 2 0 3 5 4 5 4 5 33 29 7 100 100 100 100 100 100 100 100 100 100 100 100 100 100
0 1 97 100 65 12 9 0 0 0 1 3 3 99 98 95 100 12 54 63 62 68 3 0 2 5 70 89 53 5 8 9 59 70 100 100 100 100 100 100 100 100 82 100 100 99 100
0 0 3 5 5 5 5 5 2 0 2 3 16 30 91 100 32 24 80 74 5 70 5 8 4 4 5 79 36 62 5 5 19 5 5 100 100 100 100 100 100 99 39 100 85 5 50
5 4 3 5 5 5 7 5 5 4 3 5 5 22 99 70 87 87 80 87 100 15 12 5 28 46 5 5 5 5 5 13 40 5 5 16 27 22 97 100 100 100 100 34 32 90 100
5 5 5 5 7 5 5 5 5 5 5 5 6 77 92 84 98 100 90 60 44 92 91 72 5 7 42 39 7 5 12 39 40 6 8 21 70 76 46 5 43 78 12 42 87 91 100
5 5 5 5 5 81 5 5 5 5 5 6 5 16 93 90 78 68 100 100 51 88 26 83 5 5 5 8 84 91 52 92 75 14 25 56 100 100 100 97 100 100 99 99 95 100 99
5 5 9 92 5 20 5 5 23 47 69 5 17 5 64 52 66 95 89 100 57 99 57 14 81 8 5 5 58 92 100 99 99 87 17 32 69 79 68 100 100 100 100 100 100 100 100
20 5 5 26 16 5 5 5 5 81 92 19 7 5 58 100 46 62 69 100 100 100 100 100 76 70 52 68 60 58 92 100 96 100 40 51 81 91 100 100 76 98 100 100 83 100 100
5 9 93 5 5 5 11 17 5 7 96 85 5 34 69 71 39 5 13 100 97 100 100 100 100 100 94 49 63 99 7 95 79 100 99 93 92 100 99 100 79 93 98 100 100 100 100
7 5 5 5 5 5 5 5 5 5 74 67 40 5 78 98 31 22 100 100 100 100 100 100 100 100 100 99 31 47 7 5 45 99 50 64 62 85 12 98 100 100 100 99 99 100 100